Location: ?ern� Novina
(50.6762°N, 14.8696°E)
Time: 11:45:50
(UTC+00:00)

Cosmos 1862 Rocket - Pass Details

Date: 03 March 2021
Orbit: 603 x 634 km, 82.5° (Epoch: 13 April)

Event Time Altitude Azimuth Distance (km) Brightness Sun altitude
Rises 17:20:49 0° 351° (N) 2,945 7.1 -6.4°
Reaches altitude 10° 17:23:05 10° 355° (N) 2,033 6.3 -6.8°
Maximum altitude 17:27:35 64° 77° (ENE) 705 3.6 -7.5°
Drops below altitude 10° 17:32:01 10° 160° (SSE) 2,012 6.0 -8.2°
Sets 17:34:15 0° 163° (SSE) 2,912 6.8 -8.5°
